Regional Weather Roundup
Issued by NWS

Home | Current Version | Previous Version | Graphics & Text | Print | Product List | Glossary On
Versions: 1 2 3 4 5 6 7 8 9 10 11 12 13 14 15 16 17 18 19 20 21 22 23 24 25 26 27 28 29 30 31 32 33 34 35 36 37 38 39 40 41 42 43 44 45 46 47 48 49 50
000
ASUS43 KMPX 310701
RWRMN
WEATHER ROUNDUP FOR MINNESOTA
NATIONAL WEATHER SERVICE TWIN CITIES/CHANHASSEN MN
200 AM CDT FRI OCT 31 2014


NOTE: "FAIR" INDICATES FEW OR NO CLOUDS BELOW 12,000 FEET WITH NO
SIGNIFICANT WEATHER AND/OR OBSTRUCTIONS TO VISIBILITY. N/A MEANS
CURRENT SKY AND/OR WEATHER CONDITIONS ARE NOT AVAILABLE.

MNZ060>063-068>070-310800-
   Twin Cities Metro

CITY           SKY/WX    TMP DP  RH WIND       PRES   REMARKS
TWIN CITIES    CLEAR     30  14  51 N20G25    30.41R WCI  17
ST PAUL        CLEAR     30  16  56 N15G31    30.42R WCI  19
CRYSTAL        CLEAR     31  15  52 N15G24    30.41R WCI  20
BLAINE         CLEAR     30  18  59 N14G20    30.41R WCI  20
LAKEVILLE      CLEAR     28  16  59 N16       30.39R WCI  17
EDEN PRAIRIE   CLEAR     31  15  52 NW10      30.40R WCI  22
SOUTH ST PAUL  CLEAR     31  16  52 N15G23    30.40R WCI  21
LAKE ELMO      FAIR      30  18  59 N10G26    30.40R WCI  21
$$
MNZ001>005-007-008-013>017-022>024-027-028-310800-
   Northwest Minnesota

CITY           SKY/WX    TMP DP  RH WIND       PRES   REMARKS
BEMIDJI        MOCLDY    27  16  64 N6        30.51R WCI  20
HALLOCK        CLEAR     19  16  86 N7        30.61R WCI  10
ROSEAU         CLEAR     21  18  86 NW3       30.57R
WARROAD        CLEAR     25  19  80 NW6       30.56R WCI  18
THIEF RVR FALL CLEAR     21  16  79 NW7       30.57R WCI  13
CROOKSTON      CLEAR     19  16  86 N7        30.60R WCI  10
FOSSTON        CLEAR     18  16  93 N6        30.55R WCI   9
DETROIT LAKES  CLEAR     25  21  86 N6        30.53R WCI  18
MOORHEAD       CLEAR     21  21 100 N8        30.58S WCI  12
PARK RAPIDS    PTCLDY    25  17  72 N7        30.49R WCI  17
MAHNOMEN       FAIR      22  18  83 N8        30.53S WCI  13
$$
MNZ006-009>011-018-025>026-310800-
   North Central Minnesota

CITY           SKY/WX    TMP DP  RH WIND       PRES   REMARKS
BAUDETTE       CLEAR     26  17  68 NE7       30.54R WCI  18
FLAG ISLAND    MOCLDY    28  19  69 NE12      30.55R WCI  18
INTL FALLS     CLOUDY    28  17  63 N14       30.50R WCI  17
WASKISH        MOCLDY    28  19  69 CALM      30.52R
BIG FORK       CLOUDY    28  18  64 N12G18    30.48R WCI  18
LONGVILLE      CLOUDY    28  18  64 N10G17    30.48R WCI  19
GRAND RAPIDS   CLOUDY    27  18  69 N14G20    30.45R WCI  15
CRANE LAKE     CLOUDY    27  19  74 N8G18     30.49R WCI  18
ORR            MOCLDY    27  16  63 N6        30.44R WCI  20
COOK           CLOUDY    27  19  74 N8        30.45R WCI  18
WALKER         CLOUDY    27  15  61 N13G18    30.49R WCI  16
$$
MNZ012-019>021-037-310800-
   Northeast Minnesota

CITY           SKY/WX    TMP DP  RH WIND       PRES   REMARKS
DULUTH         MOCLDY    28  16  60 N18G25    30.38R WCI  15
ELY            FLURRIES  25  18  74 N10G24    30.41R WCI  15
HIBBING        MOCLDY    27  16  63 N18G26    30.44R WCI  14
EVELETH        CLOUDY    27  18  69 N10G20    30.43R WCI  17
DULUTH HARBOR  CLOUDY    34  21  60 N18G24    30.43R WCI  23
TWO HARBORS    PTCLDY    30  21  69 N9        30.37R WCI  22
SILVER BAY     CLEAR     28  19  69 NW7G16    30.36R WCI  21
GRAND MARAIS     N/A     29  19  66 NE10      30.35R WCI  20
G MARAIS ARPRT MOCLDY    21  16  79 N15G35    30.28R WCI   8
$$
MNZ029>031-032-039>041-046>048-054>057-064-310800-
   West Central Minnesota

CITY           SKY/WX    TMP DP  RH WIND       PRES   REMARKS
FERGUS FALLS   CLEAR     23  18  80 N6        30.57R WCI  16
WHEATON        CLEAR     21  19  93 NW7       30.58R WCI  13
MORRIS         CLEAR     23  19  86 NW12      30.52R WCI  12
ALEXANDRIA     CLEAR     28  18  66 N9        30.50R WCI  19
ELBOW LAKE     FAIR      22  20  90 NW8       30.53R WCI  13
WADENA         CLEAR     23  18  80 NW7       30.50R WCI  15
GLENWOOD       CLEAR     27  18  69 N10       30.49R WCI  17
APPLETON       CLEAR     27  21  80 N13       30.53R WCI  16
BENSON         CLEAR     21  19  93 N5        30.52R WCI  15
ORTONVILLE     CLEAR     27  19  74 N10       30.54R WCI  17
MADISON        CLEAR     30  25  80 N13       30.53S WCI  20
WILLMAR        FAIR      28  19  69 N10       30.50R WCI  19
$$
MNZ033>034-036-042>043-049>051-058-059-310800-
   Central Minnesota

CITY           SKY/WX    TMP DP  RH WIND       PRES   REMARKS
ST CLOUD       CLEAR     29  16  58 N9        30.45R WCI  20
SAUK CENTRE    FAIR      27  18  69 NW9       30.49R WCI  17
PAYNESVILLE    CLEAR     24  16  73 W6        30.48R WCI  16
AITKIN         MOCLDY    30  18  59 N16       30.43R WCI  19
PINE RIVER     MOCLDY    28  18  64 N12G22    30.50R WCI  18
BRAINERD       CLOUDY    28  17  63 N17G25    30.47R WCI  16
STAPLES        CLEAR     21  18  86 NW6       30.49R WCI  14
LONG PRAIRIE   FAIR      27  18  69 NW7       30.49R WCI  19
LITTLE FALLS   PTCLDY    30  16  55 NW7       30.47R WCI  23
LITCHFIELD     FAIR      28  19  69 NW12      30.47R WCI  18
BUFFALO        CLEAR     30  16  57 NW7G16    30.45R WCI  23
MAPLE LAKE     CLEAR     30  19  61 NW14      30.45R WCI  20
$$
MNZ037-044-045-052-053-310800-
   East Central Minnesota

CITY           SKY/WX    TMP DP  RH WIND       PRES   REMARKS
PRINCETON      CLEAR     28  18  64 N12       30.44R WCI  18
MORA           CLEAR     30  18  59 N9        30.44R WCI  22
CAMBRIDGE      CLEAR     30  18  59 N3        30.41R
RUSH CITY      CLEAR     29  18  65 N12G20    30.41R WCI  19
MOOSE LAKE     MOCLDY    30  16  55 N10G17    30.40R WCI  21
HINCKLEY       FAIR      30  19  64 N16G24    30.41R WCI  19
CLOQUET        MOCLDY    28  16  59 N15G31    30.40R WCI  17
MCGREGOR       MOCLDY    30  19  64 N14       30.44R WCI  20
$$
MNZ071>073-080-081-089-090-097-098-310800-
   Southwest Minnesota

CITY           SKY/WX    TMP DP  RH WIND       PRES   REMARKS
MONTEVIDEO     CLEAR     27  21  80 N8        30.53R WCI  18
GRANITE FALLS  CLEAR     28  22  80 NW8       30.53R WCI  19
CANBY          CLEAR     26  22  86 NW7       30.54R WCI  18
MARSHALL       CLEAR     27  18  69 N14       30.50R WCI  15
REDWOOD FALLS  CLEAR     29  20  69 N9        30.48R WCI  20
OLIVIA         CLEAR     28  21  74 N9        30.48R WCI  20
PIPESTONE      CLEAR     27  19  74 N9G16     30.48R WCI  17
WINDOM         CLEAR     27  21  80 NW18      30.45R WCI  13
WORTHINGTON    CLEAR     27  19  74 N14       30.46R WCI  15
JACKSON        CLEAR     30  21  69 NW17G24   30.44R WCI  18
TRACY          CLEAR     28  22  81 N12       30.49R WCI  17
SLAYTON        CLEAR     27  21  79 N15       30.47R WCI  15
$$
MNZ065>067-074>077-082>085-091>093-310800-
   South Central Minnesota

CITY           SKY/WX    TMP DP  RH WIND       PRES   REMARKS
MANKATO        CLEAR     30  10  43 N17       30.41R WCI  18
NEW ULM        CLEAR     28  19  69 NW14G20   30.44R WCI  17
ST JAMES       CLEAR     30  19  64 NW12      30.45R WCI  21
FAIRMONT       CLEAR     30  16  55 N17G23    30.41R WCI  18
GLENCOE        CLEAR     30  17  57 N10       30.44R WCI  21
FARIBAULT      CLEAR     30  16  55 NW10G20   30.38R WCI  21
OWATONNA       CLEAR     30  12  47 N16       30.37R WCI  19
WASECA         CLEAR     30  12  47 N13G20    30.40R WCI  20
ALBERT LEA     CLEAR     30  12  47 N15G23    30.36R WCI  19
$$
MNZ078>079-086>088-094>096-310800-
   Southeast Minnesota

CITY           SKY/WX    TMP DP  RH WIND       PRES   REMARKS
ROCHESTER      CLEAR     29  14  53 N22G35    30.32R WCI  15
RED WING       CLEAR     30  16  55 N10G20    30.36R WCI  21
STANTON        CLEAR     31  15  51 N15G22    30.37R WCI  20
DODGE CENTER   PTCLDY    28  16  59 N20G29    30.33R WCI  15
WINONA         PTCLDY    34  19  55 N17G25    30.30R WCI  23
AUSTIN         CLEAR     30  16  55 N15G24    30.33R WCI  19
PRESTON        CLEAR     29  14  53 N21G31    30.28R WCI  16
$$
ABBREVIATIONS USED IN REMARKS
   TC - TEMPERATURES IN CELSIUS
  WCI - WIND CHILL INDEX
   HX - HEAT INDEX
  VSB - VISIBILITY
$$



USA.gov is the U.S. government's official web portal to all federal, state and local government web resources and services.